• In Latvia
  • List of Countries
  • For 7 days
  • Water Temperature
  • Satellite Maps
  • Weather Map
  • Weather Widgets
  • user-avatar
    Login

    Hourly Weather Lecco

    Today, 19 September, Wednesday

    Time Temperature Precipitation Wind Pressure Humidity
    00:00 +20°C° 0.1 mm 1 mps 745 mmHg 84%
    01:00 +19°C° 0 mm 2 mps 746 mmHg 83%
    02:00 +20°C° 0.1 mm 1 mps 746 mmHg 82%
    03:00 +20°C° 0.1 mm 1 mps 746 mmHg 82%
    04:00 +20°C° 0.1 mm 1 mps 745 mmHg 82%
    05:00 +20°C° 0 mm 1 mps 746 mmHg 81%
    06:00 +20°C° 0 mm 1 mps 746 mmHg 81%
    07:00 +20°C° 0 mm 1 mps 746 mmHg 80%
    08:00 +22°C° 0 mm 1 mps 746 mmHg 72%
    09:00 +25°C° 0 mm 1 mps 746 mmHg 65%
    10:00 +27°C° 0 mm 1 mps 746 mmHg 57%
    11:00 +28°C° 0 mm 1 mps 746 mmHg 54%
    12:00 +29°C° 0 mm 1 mps 746 mmHg 52%
    13:00 +30°C° 0 mm 1 mps 745 mmHg 49%
    14:00 +29°C° 0.1 mm 1 mps 745 mmHg 52%
    15:00 +29°C° 0.1 mm 1 mps 745 mmHg 54%
    16:00 +29°C° 0.1 mm 1 mps 745 mmHg 56%
    17:00 +27°C° 0.3 mm 1 mps 745 mmHg 64%
    18:00 +25°C° 0.3 mm 1 mps 745 mmHg 71%
    19:00 +21°C° 0.3 mm 0 mps 745 mmHg 79%
    20:00 +23°C° 0.3 mm 1 mps 746 mmHg 79%
    21:00 +22°C° 0.3 mm 1 mps 746 mmHg 80%
    22:00 +22°C° 0.3 mm 1 mps 747 mmHg 80%
    23:00 +22°C° 0.1 mm 1 mps 746 mmHg 80%

    Tomorrow, 20 September, Thursday

    Time Temperature Precipitation Wind Pressure Humidity
    00:00 +21°C° 0.1 mm 1 mps 746 mmHg 79%
    01:00 +21°C° 0.1 mm 1 mps 746 mmHg 79%
    02:00 +21°C° 0 mm 1 mps 746 mmHg 78%
    03:00 +20°C° 0 mm 1 mps 746 mmHg 78%
    04:00 +20°C° 0 mm 1 mps 746 mmHg 77%
    05:00 +20°C° 0 mm 1 mps 746 mmHg 77%
    06:00 +20°C° 0 mm 1 mps 746 mmHg 76%
    07:00 +21°C° 0 mm 1 mps 746 mmHg 75%
    08:00 +23°C° 0 mm 1 mps 746 mmHg 68%
    09:00 +25°C° 0 mm 1 mps 746 mmHg 61%
    10:00 +26°C° 0 mm 0 mps 746 mmHg 54%
    11:00 +29°C° 0 mm 1 mps 746 mmHg 52%
    12:00 +29°C° 0 mm 1 mps 745 mmHg 50%
    13:00 +30°C° 0 mm 1 mps 745 mmHg 48%
    14:00 +30°C° 0 mm 1 mps 745 mmHg 49%
    15:00 +30°C° 0 mm 1 mps 744 mmHg 51%
    16:00 +30°C° 0 mm 1 mps 744 mmHg 52%
    17:00 +28°C° 0 mm 1 mps 744 mmHg 60%
    18:00 +26°C° 0 mm 1 mps 744 mmHg 68%
    19:00 +24°C° 0 mm 1 mps 744 mmHg 76%
    20:00 +23°C° 0 mm 1 mps 744 mmHg 77%
    21:00 +23°C° 0 mm 1 mps 745 mmHg 79%
    22:00 +22°C° 0 mm 1 mps 745 mmHg 80%
    23:00 +22°C° 0 mm 1 mps 745 mmHg 80%

    Day after tomorrow, 21 September, Friday

    Time Temperature Precipitation Wind Pressure Humidity
    00:00 +22°C° 0 mm 1 mps 745 mmHg 81%
    01:00 +20°C° 0 mm 2 mps 745 mmHg 81%
    02:00 +21°C° 0 mm 1 mps 744 mmHg 81%
    03:00 +21°C° 0 mm 1 mps 744 mmHg 81%
    04:00 +20°C° 0 mm 1 mps 744 mmHg 81%
    05:00 +20°C° 0 mm 1 mps 744 mmHg 80%
    06:00 +21°C° 0 mm 1 mps 744 mmHg 79%
    07:00 +21°C° 0 mm 1 mps 744 mmHg 79%
    08:00 +23°C° 0 mm 1 mps 744 mmHg 72%
    09:00 +25°C° 0 mm 1 mps 744 mmHg 64%
    10:00 +27°C° 0 mm 1 mps 744 mmHg 57%
    11:00 +28°C° 0 mm 1 mps 744 mmHg 55%
    12:00 +29°C° 0 mm 1 mps 744 mmHg 52%
    13:00 +30°C° 0 mm 2 mps 743 mmHg 49%
    14:00 +29°C° 0 mm 2 mps 743 mmHg 50%
    15:00 +29°C° 0 mm 2 mps 742 mmHg 51%
    16:00 +29°C° 0 mm 2 mps 742 mmHg 52%
    17:00 +27°C° 0 mm 1 mps 742 mmHg 60%
    18:00 +25°C° 0 mm 1 mps 742 mmHg 68%
    19:00 +21°C° 0 mm 0 mps 743 mmHg 75%
    20:00 +23°C° 0 mm 1 mps 743 mmHg 77%
    21:00 +22°C° 0 mm 1 mps 743 mmHg 78%
    22:00 +22°C° 0 mm 1 mps 744 mmHg 80%
    23:00 +22°C° 0 mm 1 mps 744 mmHg 80%

    22 September, Saturday

    Time Temperature Precipitation Wind Pressure Humidity
    00:00 +22°C° 0 mm 1 mps 744 mmHg 81%
    01:00 +21°C° 0 mm 1 mps 744 mmHg 81%
    02:00 +21°C° 0 mm 1 mps 744 mmHg 81%
    03:00 +21°C° 0 mm 1 mps 744 mmHg 81%
    04:00 +21°C° 0 mm 1 mps 744 mmHg 81%
    05:00 +21°C° 0 mm 1 mps 744 mmHg 81%
    06:00 +21°C° 0 mm 1 mps 744 mmHg 81%
    07:00 +21°C° 0 mm 1 mps 744 mmHg 81%
    08:00 +23°C° 0 mm 1 mps 744 mmHg 75%
    09:00 +24°C° 0 mm 1 mps 744 mmHg 69%
    10:00 +26°C° 0 mm 1 mps 745 mmHg 63%
    11:00 +27°C° 0 mm 1 mps 744 mmHg 61%
    12:00 +27°C° 0 mm 1 mps 744 mmHg 59%
    13:00 +28°C° 0 mm 2 mps 744 mmHg 56%
    14:00 +28°C° 0 mm 2 mps 744 mmHg 57%
    15:00 +28°C° 0 mm 1 mps 744 mmHg 57%
    16:00 +28°C° 0 mm 1 mps 744 mmHg 57%
    17:00 +26°C° 0 mm 1 mps 744 mmHg 62%
    18:00 +25°C° 0 mm 1 mps 744 mmHg 68%
    19:00 +23°C° 0 mm 1 mps 745 mmHg 73%
    20:00 +22°C° 0 mm 1 mps 745 mmHg 73%
    21:00 +21°C° 0 mm 2 mps 745 mmHg 73%
    22:00 +20°C° 0 mm 2 mps 746 mmHg 73%
    23:00 +20°C° 0 mm 2 mps 746 mmHg 72%

    23 September, Sunday

    Time Temperature Precipitation Wind Pressure Humidity
    00:00 +20°C° 0 mm 1 mps 746 mmHg 71%
    01:00 +20°C° 0 mm 1 mps 746 mmHg 70%
    02:00 +20°C° 0 mm 1 mps 746 mmHg 71%
    03:00 +19°C° 0 mm 2 mps 746 mmHg 73%
    04:00 +19°C° 0 mm 2 mps 746 mmHg 74%
    05:00 +19°C° 0 mm 2 mps 746 mmHg 76%
    06:00 +20°C° 0 mm 1 mps 746 mmHg 78%
    07:00 +19°C° 0 mm 1 mps 746 mmHg 80%
    08:00 +20°C° 0 mm 2 mps 746 mmHg 79%
    09:00 +21°C° 0 mm 2 mps 746 mmHg 77%
    10:00 +23°C° 0 mm 2 mps 746 mmHg 75%
    11:00 +23°C° 0 mm 2 mps 745 mmHg 74%
    12:00 +24°C° 0 mm 2 mps 745 mmHg 73%
    13:00 +24°C° 0 mm 2 mps 744 mmHg 71%
    14:00 +24°C° 0 mm 2 mps 744 mmHg 73%
    15:00 +24°C° 0 mm 2 mps 743 mmHg 75%
    16:00 +24°C° 0 mm 2 mps 743 mmHg 77%
    17:00 +23°C° 0.1 mm 2 mps 743 mmHg 80%
    18:00 +23°C° 0.1 mm 2 mps 743 mmHg 83%
    19:00 +22°C° 0.1 mm 1 mps 743 mmHg 86%
    20:00 +22°C° 0.2 mm 1 mps 742 mmHg 87%
    21:00 +21°C° 0.2 mm 1 mps 742 mmHg 88%
    22:00 +21°C° 0.2 mm 1 mps 741 mmHg 89%
    23:00 +21°C° 0.5 mm 1 mps 741 mmHg 90%

    24 September, Monday

    Time Temperature Precipitation Wind Pressure Humidity
    00:00 +21°C° 0.5 mm 1 mps 740 mmHg 91%
    01:00 +21°C° 0.5 mm 1 mps 739 mmHg 92%
    02:00 +21°C° 0.2 mm 1 mps 739 mmHg 92%
    03:00 +21°C° 0.2 mm 1 mps 739 mmHg 92%
    04:00 +21°C° 0.2 mm 1 mps 739 mmHg 92%
    05:00 +19°C° 0.1 mm 2 mps 740 mmHg 90%
    06:00 +19°C° 0.1 mm 3 mps 740 mmHg 88%
    07:00 +18°C° 0.1 mm 4 mps 741 mmHg 87%
    08:00 +19°C° 0 mm 4 mps 742 mmHg 72%
    09:00 +21°C° 0 mm 5 mps 742 mmHg 57%
    10:00 +22°C° 0 mm 5 mps 743 mmHg 42%
    11:00 +23°C° 0 mm 5 mps 743 mmHg 39%
    12:00 +25°C° 0 mm 5 mps 743 mmHg 35%
    13:00 +26°C° 0 mm 5 mps 743 mmHg 31%
    14:00 +26°C° 0 mm 5 mps 744 mmHg 32%
    15:00 +25°C° 0 mm 5 mps 744 mmHg 33%
    16:00 +25°C° 0 mm 5 mps 744 mmHg 34%
    17:00 +22°C° 0 mm 5 mps 745 mmHg 38%
    18:00 +20°C° 0 mm 5 mps 745 mmHg 41%
    19:00 +17°C° 0 mm 5 mps 746 mmHg 44%
    20:00 +17°C° 0 mm 4 mps 747 mmHg 46%
    21:00 +17°C° 0 mm 4 mps 748 mmHg 47%
    22:00 +15°C° 0 mm 4 mps 749 mmHg 49%
    23:00 +15°C° 0 mm 4 mps 749 mmHg 49%
    Show more